Regional Weather Roundup
Issued by NWS

Home | Current Version | Previous Version | Text Only | Print | Product List | Glossary Off
Versions: 1 2 3 4 5 6 7 8 9 10 11 12 13 14 15 16 17 18 19 20 21 22 23 24 25 26 27 28 29 30 31 32 33 34 35 36 37 38 39 40 41 42 43 44 45 46 47 48 49 50

081
ASUS43 KMKX 140400
RWRWI

WISCONSIN REGIONAL WEATHER ROUNDUP
NATIONAL WEATHER SERVICE MILWAUKEE/SULLIVAN WI
1000 PM CST SAT FEB 13 2016

NOTE: "FAIR" INDICATES FEW OR NO CLOUDS BELOW 12,000 FEET WITH NO
SIGNIFICANT WEATHER AND/OR OBSTRUCTIONS TO VISIBILITY.

WIZ001-002-006>008-014>016-023>028-140500-
NORTHWEST WISCONSIN

CITY           SKY/WX    TMP DP  RH WIND       PRES   REMARKS
SUPERIOR ARPT  CLOUDY    -5  -8  86 CALM      30.39F
ASHLAND        CLOUDY   -12 -18  74 CALM      30.38F
HAYWARD        CLOUDY   -12 -19  71 CALM      30.34F
SIREN          CLOUDY    -7 -15  66 CALM      30.36F
CUMBERLAND     CLOUDY    -4 -15  59 SE5       30.34F WCI -15
RICE LAKE      CLOUDY    -5 -14  63 CALM      30.38S
CHETEK         CLOUDY    -8 -15  71 CALM      30.37F
LADYSMITH      CLOUDY    -7 -15  67 SE3       30.37F
EAU CLAIRE     NOT AVBL
MENOMONIE      CLOUDY    -1 -12  59 SE5       30.39F WCI -11
NEW RICHMOND   CLOUDY     0 -12  57 SE5       30.35F WCI -10
OSCEOLA        CLOUDY     3  -9  56 SE7       30.39F WCI  -9
$$

WIZ003>005-009-010-017-018-140500-
NORTH CENTRAL WISCONSIN

CITY           SKY/WX    TMP DP  RH WIND       PRES   REMARKS
MANITOWISH WTR CLOUDY   -14 -17  83 CALM      30.31F
ARBOR VITAE    CLOUDY    -9 -15  74 CALM      30.32F
WOODRUFF       CLOUDY    -9 -15  74 CALM      30.32F
RHINELANDER    CLOUDY   -10 -18  67 CALM      30.32F
EAGLE RIVER    CLOUDY   -12 -17  75 CALM      30.32F
LAND O LAKES   CLOUDY   -16 -21  77 CALM      30.33F
PHILLIPS       CLOUDY   -12 -18  76 CALM      30.33F
TOMAHAWK       CLOUDY   -14 -19  77 CALM      30.35F
MEDFORD        CLOUDY   -12 -16  79 CALM      30.34S
MERRILL        CLOUDY   -10 -15  76 CALM      30.38F
$$

WIZ029-030-035-036-043>047-140500-
CENTRAL WISCONSIN

CITY           SKY/WX    TMP DP  RH WIND       PRES   REMARKS
WAUSAU         CLOUDY    -4 -10  75 CALM      30.38F
MOSINEE        CLEAR     -2 -11  65 CALM      30.39F
MARSHFIELD     CLOUDY    -2 -12  62 CALM      30.36F
STEVENS POINT  CLOUDY   -10 -15  75 CALM      30.41F
WAUPACA        CLOUDY    -4 -13  66 CALM      30.44F
WAUTOMA        NOT AVBL
WISC RAPIDS    CLOUDY    -4 -12  68 CALM      30.42F
CAMP DOUGLAS   NOT AVBL
$$

WIZ011>013-019>022-031-037>040-048>050-140500-
NORTHEAST WISCONSIN

CITY           SKY/WX    TMP DP  RH WIND       PRES   REMARKS
ANTIGO         CLOUDY    -8 -13  76 CALM      30.36F
SHAWANO        PTCLDY    -1  -8  70 CALM      30.45F
OCONTO         CLOUDY    -3  -9  73 CALM      30.45F
STURGEON BAY   CLEAR      3  -9  55 SW5       30.46F WCI  -6
GREEN BAY      CLOUDY    -2 -11  65 S5        30.45F WCI -12
MANITOWOC      NOT AVBL
APPLETON       PTCLDY     1 -15  46 CALM      30.41F
CLINTONVILLE   CLOUDY    -2  -9  71 CALM      30.44F
OSHKOSH        CLOUDY    -3 -11  68 CALM      30.43F
$$

WIZ032>034-041-042-053>061-140500-
SOUTHWEST WISCONSIN

CITY           SKY/WX    TMP DP  RH WIND       PRES   REMARKS
LA CROSSE      CLOUDY     3  -9  57 SE7       30.42F WCI  -9
SPARTA         CLOUDY    -6 -12  75 CALM      30.43F
VIROQUA        CLOUDY     4 -11  51 SE7       30.37S WCI  -9
BOSCOBEL       CLOUDY     1  -8  66 CALM      30.45F
PRAIRIE DU CHI CLOUDY     6  -7  55 SE3       30.44S
PLATTEVILLE    CLOUDY     7  -4  61 E6        30.41F WCI  -3
$$

WIZ056-057-062-063-064-067-068-140500-
SOUTH CENTRAL WISCONSIN

CITY           SKY/WX    TMP DP  RH WIND       PRES   REMARKS
REEDSBURG      CLOUDY    -1 -10  66 CALM      30.43F
BARABOO/DELLS  CLOUDY    -1 -11  61 S3        30.42F
LONE ROCK      NOT AVBL
MINERAL POINT  CLOUDY     5  -8  56 CALM      30.40F
MADISON        MOCLDY     3  -5  69 CALM      30.44F
MIDDLETON      PTCLDY     2  -4  75 CALM      30.44S
WATERTOWN      CLOUDY     2  -3  77 CALM      30.45S
MONROE         CLOUDY     9  -4  56 CALM      30.42S
JANESVILLE     CLOUDY    10   1  67 CALM      30.46S
$$

WIZ051-052-058>065-066-070>072-140500-
SOUTHEAST WISCONSIN

CITY           SKY/WX    TMP DP  RH WIND       PRES   REMARKS
MILWAUKEE      PTCLDY     7  -5  57 W5        30.47F WCI  -2
WAUKESHA       CLOUDY     1  -6  71 CALM      30.47S
MILWAUKEE/TIMM PTCLDY     5  -6  61 CALM      30.48F
RACINE         PTCLDY     6  -7  54 W5        30.49F WCI  -3
BURLINGTON     CLOUDY     1  -4  81 CALM      30.47S
KENOSHA        PTCLDY     5  -4  66 CALM      30.47S
FOND DU LAC    CLOUDY    -3 -10  72 S5        30.45F WCI -13
SHEBOYGAN      CLEAR     -1  -7  75 SW3       30.46F
WEST BEND      CLOUDY     0  -6  78 CALM      30.45F
JUNEAU         CLOUDY     2  -6  69 SE6       30.45F WCI -10
$$

LSZ147-162-140500-
LAKE SUPERIOR

STATION/POSITION TIME  TEMP    WIND        PRES    WAVE
                       AIR SEA DIR/SP/G            HT/PER
                 (UTC) (F)     (DEG/KT/KT) (MB)    (FT/S)
DEVILS ISLAND    0300    9     170/  7/  7 1031.1F
SAXON HARBOR     0300   -9                 1029.1F
$$

LMZ867-665-643>646-140500-
LAKE MICHIGAN

STATION/POSITION TIME  TEMP    WIND        PRES    WAVE
                       AIR SEA DIR/SP/G            HT/PER
                 (UTC) (F)     (DEG/KT/KT) (MB)    (FT/S)
CHAMBERS ISLAND  0300    5     180/  3/  5 1031.2S
SISTER BAY       0319    6        CALM       N/A
ALGOMA LAKESHORE 0311             CALM       N/A
KEWAUNEE LAKESHO 0300    4                 1030.8S
SHEBOYGAN LAKESH 0300    7     260/  7/  8 1034.1F
PORT WASHINGTON  0340    5      CALM  /  4 1033.2F
MILWAUKEE LAKESH 0310    9     300/  4/  5   N/A
KENOSHA   LAKESH 0300   11     340/  7/  8 1032.2S
$$

TC  - TEMPERATURE IN CELSIUS
VSB - VISIBILITY IN STATUTE MILES
WCI - WIND CHILL INDEX
HX  - HEAT INDEX





USA.gov is the U.S. government's official web portal to all federal, state and local government web resources and services.